EN

Hourly Weather Ludwikowo

Today, 15 January, Friday

Time Temperature Precipitation Wind Pressure Humidity
00:00 -8°C° 0 mm 2 mps 753 mmHg 94%
01:00 -9°C° 0 mm 2 mps 753 mmHg 93%
02:00 -9°C° 0 mm 2 mps 753 mmHg 93%
03:00 -10°C° 0 mm 2 mps 753 mmHg 92%
04:00 -12°C° 0 mm 2 mps 754 mmHg 91%
05:00 -12°C° 0 mm 2 mps 754 mmHg 90%
06:00 -10°C° 0 mm 1 mps 754 mmHg 89%
07:00 -9°C° 0 mm 1 mps 754 mmHg 88%
08:00 -9°C° 0 mm 2 mps 754 mmHg 86%
09:00 -9°C° 0 mm 3 mps 754 mmHg 84%
10:00 -8°C° 0 mm 3 mps 754 mmHg 82%
11:00 -8°C° 0.2 mm 4 mps 754 mmHg 85%
12:00 -7°C° 0.2 mm 5 mps 754 mmHg 88%
13:00 -6°C° 0.2 mm 5 mps 754 mmHg 91%
14:00 -7°C° 0.1 mm 5 mps 754 mmHg 89%
15:00 -8°C° 0.1 mm 4 mps 754 mmHg 87%
16:00 -9°C° 0.1 mm 4 mps 754 mmHg 84%
17:00 -9°C° 0 mm 3 mps 754 mmHg 86%
18:00 -10°C° 0 mm 3 mps 755 mmHg 88%
19:00 -12°C° 0 mm 2 mps 755 mmHg 89%
20:00 -12°C° 0 mm 2 mps 755 mmHg 90%
21:00 -12°C° 0 mm 2 mps 756 mmHg 90%
22:00 -10°C° 0 mm 1 mps 756 mmHg 91%
23:00 -9°C° 0.1 mm 1 mps 756 mmHg 92%

Tomorrow, 16 January, Saturday

Time Temperature Precipitation Wind Pressure Humidity
00:00 -9°C° 0.1 mm 2 mps 756 mmHg 94%
01:00 -9°C° 0.1 mm 2 mps 756 mmHg 95%
02:00 -8°C° 0.1 mm 2 mps 756 mmHg 95%
03:00 -8°C° 0.1 mm 2 mps 755 mmHg 95%
04:00 -8°C° 0.1 mm 2 mps 755 mmHg 95%
05:00 -9°C° 0 mm 3 mps 755 mmHg 95%
06:00 -9°C° 0 mm 3 mps 755 mmHg 95%
07:00 -8°C° 0 mm 3 mps 755 mmHg 95%
08:00 -8°C° 0.1 mm 4 mps 754 mmHg 92%
09:00 -8°C° 0.1 mm 5 mps 754 mmHg 89%
10:00 -8°C° 0.1 mm 6 mps 753 mmHg 86%
11:00 -8°C° 0.1 mm 7 mps 753 mmHg 88%
12:00 -8°C° 0.1 mm 7 mps 752 mmHg 90%
13:00 -8°C° 0.1 mm 7 mps 751 mmHg 91%
14:00 -8°C° 0.5 mm 7 mps 751 mmHg 92%
15:00 -7°C° 0.5 mm 7 mps 751 mmHg 93%
16:00 -7°C° 0.5 mm 7 mps 751 mmHg 94%
17:00 -9°C° 0.4 mm 6 mps 751 mmHg 92%
18:00 -10°C° 0.4 mm 6 mps 751 mmHg 91%
19:00 -12°C° 0.4 mm 5 mps 751 mmHg 89%
20:00 -12°C° 0 mm 4 mps 752 mmHg 89%
21:00 -15°C° 0 mm 4 mps 752 mmHg 90%
22:00 -16°C° 0 mm 4 mps 753 mmHg 90%
23:00 -17°C° 0 mm 4 mps 753 mmHg 91%

Day after tomorrow, 17 January, Sunday

Time Temperature Precipitation Wind Pressure Humidity
00:00 -17°C° 0 mm 3 mps 754 mmHg 92%
01:00 -18°C° 0 mm 3 mps 754 mmHg 93%
02:00 -19°C° 0 mm 3 mps 755 mmHg 93%
03:00 -18°C° 0 mm 2 mps 755 mmHg 93%
04:00 -18°C° 0 mm 2 mps 755 mmHg 93%
05:00 -19°C° 0 mm 2 mps 756 mmHg 93%
06:00 -19°C° 0 mm 2 mps 756 mmHg 93%
07:00 -19°C° 0 mm 2 mps 756 mmHg 92%
08:00 -16°C° 0 mm 1 mps 757 mmHg 90%
09:00 -16°C° 0 mm 1 mps 757 mmHg 87%
10:00 -15°C° 0 mm 1 mps 757 mmHg 85%
11:00 -14°C° 0 mm 1 mps 757 mmHg 83%
12:00 -13°C° 0 mm 1 mps 758 mmHg 81%
13:00 -12°C° 0 mm 1 mps 758 mmHg 78%
14:00 -13°C° 0 mm 1 mps 758 mmHg 82%
15:00 -14°C° 0 mm 1 mps 757 mmHg 85%
16:00 -15°C° 0 mm 1 mps 757 mmHg 88%
17:00 -15°C° 0 mm 1 mps 758 mmHg 88%
18:00 -15°C° 0 mm 1 mps 758 mmHg 89%
19:00 -16°C° 0 mm 1 mps 758 mmHg 89%
20:00 -16°C° 0 mm 0 mps 758 mmHg 89%
21:00 -16°C° 0 mm 0 mps 758 mmHg 89%
22:00 -16°C° 0 mm 0 mps 758 mmHg 88%
23:00 -16°C° 0 mm 0 mps 758 mmHg 88%

18 January, Monday

Time Temperature Precipitation Wind Pressure Humidity
00:00 -16°C° 0 mm 0 mps 758 mmHg 88%
01:00 -16°C° 0 mm 0 mps 758 mmHg 88%
02:00 -16°C° 0 mm 0 mps 758 mmHg 88%
03:00 -17°C° 0 mm 0 mps 758 mmHg 88%
04:00 -17°C° 0 mm 0 mps 758 mmHg 88%
05:00 -17°C° 0 mm 0 mps 758 mmHg 88%
06:00 -17°C° 0 mm 0 mps 759 mmHg 87%
07:00 -17°C° 0 mm 0 mps 759 mmHg 87%
08:00 -16°C° 0 mm 1 mps 759 mmHg 85%
09:00 -15°C° 0 mm 1 mps 759 mmHg 84%
10:00 -13°C° 0 mm 1 mps 759 mmHg 82%
11:00 -12°C° 0 mm 1 mps 759 mmHg 81%
12:00 -11°C° 0 mm 1 mps 759 mmHg 80%
13:00 -10°C° 0 mm 1 mps 759 mmHg 79%
14:00 -11°C° 0 mm 1 mps 759 mmHg 82%
15:00 -12°C° 0 mm 1 mps 759 mmHg 85%
16:00 -13°C° 0 mm 1 mps 758 mmHg 88%
17:00 -13°C° 0 mm 1 mps 759 mmHg 88%
18:00 -13°C° 0 mm 1 mps 759 mmHg 88%
19:00 -13°C° 0 mm 1 mps 759 mmHg 89%
20:00 -13°C° 0 mm 1 mps 759 mmHg 89%
21:00 -15°C° 0 mm 2 mps 759 mmHg 90%
22:00 -15°C° 0 mm 2 mps 759 mmHg 90%
23:00 -15°C° 0 mm 2 mps 759 mmHg 90%

19 January, Tuesday

Time Temperature Precipitation Wind Pressure Humidity
00:00 -14°C° 0 mm 2 mps 759 mmHg 90%
01:00 -14°C° 0 mm 2 mps 759 mmHg 90%
02:00 -13°C° 0 mm 2 mps 758 mmHg 91%
03:00 -13°C° 0 mm 2 mps 758 mmHg 92%
04:00 -12°C° 0 mm 2 mps 758 mmHg 93%
05:00 -12°C° 0 mm 2 mps 758 mmHg 94%
06:00 -10°C° 0 mm 2 mps 758 mmHg 95%
07:00 -10°C° 0 mm 2 mps 758 mmHg 95%
08:00 -8°C° 0.1 mm 2 mps 758 mmHg 95%
09:00 -7°C° 0.1 mm 2 mps 758 mmHg 95%
10:00 -6°C° 0.1 mm 2 mps 758 mmHg 95%
11:00 -5°C° 0 mm 2 mps 758 mmHg 96%
12:00 -4°C° 0 mm 3 mps 758 mmHg 96%
13:00 -2°C° 0 mm 3 mps 757 mmHg 97%
14:00 -2°C° 0.1 mm 3 mps 757 mmHg 97%
15:00 -1°C° 0.1 mm 3 mps 757 mmHg 98%
16:00 -1°C° 0.1 mm 3 mps 757 mmHg 98%
17:00 -1°C° 0 mm 3 mps 757 mmHg 97%
18:00 -2°C° 0 mm 3 mps 756 mmHg 96%
19:00 -3°C° 0 mm 4 mps 756 mmHg 95%
20:00 -3°C° 0 mm 4 mps 756 mmHg 93%
21:00 -4°C° 0 mm 4 mps 756 mmHg 92%
22:00 -4°C° 0 mm 4 mps 755 mmHg 90%
23:00 -4°C° 0 mm 4 mps 755 mmHg 90%

20 January, Wednesday

Time Temperature Precipitation Wind Pressure Humidity
00:00 -4°C° 0 mm 4 mps 755 mmHg 90%
01:00 -4°C° 0 mm 4 mps 754 mmHg 90%
02:00 -4°C° 0 mm 4 mps 754 mmHg 89%
03:00 -4°C° 0 mm 4 mps 754 mmHg 89%
04:00 -4°C° 0 mm 4 mps 753 mmHg 88%
05:00 -5°C° 0 mm 5 mps 753 mmHg 87%
06:00 -4°C° 0 mm 5 mps 753 mmHg 87%
07:00 -4°C° 0 mm 5 mps 753 mmHg 86%
08:00 -4°C° 0 mm 5 mps 752 mmHg 85%
09:00 -4°C° 0 mm 5 mps 752 mmHg 84%
10:00 -2°C° 0 mm 5 mps 752 mmHg 83%
11:00 -2°C° 0 mm 5 mps 752 mmHg 84%
12:00 -2°C° 0 mm 5 mps 751 mmHg 84%
13:00 -1°C° 0 mm 5 mps 751 mmHg 84%
14:00 -2°C° 0 mm 5 mps 751 mmHg 85%
15:00 -2°C° 0 mm 5 mps 750 mmHg 85%
16:00 -3°C° 0 mm 4 mps 750 mmHg 86%
17:00 -3°C° 0 mm 4 mps 750 mmHg 86%
18:00 -4°C° 0 mm 5 mps 750 mmHg 87%
19:00 -5°C° 0 mm 5 mps 750 mmHg 87%
20:00 -5°C° 0 mm 5 mps 749 mmHg 87%
21:00 -5°C° 0 mm 5 mps 749 mmHg 87%
22:00 -5°C° 0 mm 5 mps 749 mmHg 86%
23:00 -4°C° 0 mm 4 mps 749 mmHg 86%
Show more